Regional Weather Roundup
Issued by NWS State College, PA

Home | Current Version | Previous Version | Text Only | Print | Product List | Glossary On
Versions: 1 2 3 4 5 6 7 8 9 10 11 12 13 14 15 16 17 18 19 20 21 22 23 24 25 26 27 28 29 30 31 32 33 34 35 36 37 38 39 40 41 42 43 44 45 46 47 48 49 50
000
ASUS41 KCTP 310003
RWRCTP

REGIONAL WEATHER ROUNDUP
NATIONAL WEATHER SERVICE STATE COLLEGE PA
700 PM EST FRI JAN 30 2015

Note: "fair" indicates few or no clouds below 12,000 feet with no
significant weather and/or obstructions to visibility.

* = STATION THAT DOES NOT REPORT PRECIPITATION /E.G. RAIN...SNOW...ETC/
    THUNDER OR FOG.

PAZ002>004-007>009-013>016-020>023-029>032-310100-
WESTERN PENNSYLVANIA

CITY           SKY/WX    TMP DP  RH WIND       PRES   REMARKS
ERIE           CLOUDY    15   6  67 NW8       30.39R WCI   4
MEADVILLE      LGT SNOW  13   8  81 NW8       30.31R WCI   2
FRANKLIN*      CLOUDY    10   3  72 NW6       30.30S WCI   1
NEW CASTLE     FLURRIES  13   8  80 W12       30.39R WCI  -1
BEAVER COUNTY  CLOUDY    14   7  73 NW8       30.36  WCI   3
BUTLER*        CLOUDY    14   7  73 W7        30.35R WCI   4
PITTSBURGH INT FLURRIES  14   4  64 NW20      30.36R WCI  -3
PITTSBURGH     CLOUDY    13   2  61 NW12G24   30.34R WCI  -1
INDIANA*       CLOUDY    14   7  73 NW12G20   30.32R WCI   0
LATROBE        CLOUDY    16   7  67 W17       30.35R WCI   0
WASHINGTON CO* CLOUDY    16   7  67 NW9       30.38R WCI   4
$$

PAZ004>006-010>012-017>019-024>028-033>037-041-042-045-046-049>053-310100-
CENTRAL PENNSYLVANIA

CITY           SKY/WX    TMP DP  RH WIND       PRES   REMARKS
BRADFORD       MIX PCPN   6  -1  73 NW12G22   30.17R WCI  -9
DUBOIS         CLOUDY     9   2  73 W10G21    30.21R WCI  -5
CLEARFIELD     CLOUDY    12   3  67 NW17G28   30.22R WCI  -5
JOHNSTOWN      SNOW      11   6  81 NW23G37   30.15R VSB 1/2 WCI  -9
ALTOONA        FLURRIES  19   5  54 NW18G31   30.20R WCI   4
STATE COLLEGE  FLURRIES  16   7  67 NW12G22   30.21R WCI   3
WILLIAMSPORT   CLEAR     19   3  49 NW14      30.19R WCI   6
SELINSGROVE    MOCLDY    22   6  50 NW21G30   30.19R WCI   6
FT INDIANTOWN  CLOUDY    24   7  49 W8G25     30.14R WCI  14
CAPITAL CITY   PTCLDY    23   8  52 NW21G28   30.18R WCI   8
HARRISBURG     PTCLDY    22  10  60 NW23G33   30.16R WCI   6
YORK           CLEAR     22   8  55 NW22G31   30.16R WCI   6
$$

PAZ038>040-043-044-047-048-054-055-060>062-067>071-310100-
EASTERN PENNSYLVANIA

CITY           SKY/WX    TMP DP  RH WIND       PRES   REMARKS
SCRANTON       LGT SNOW  16   7  67 N20       30.09R WCI  -1
MOUNT POCONO   LGT SNOW  13   4  67 NW24G36   29.93R WCI  -7
ALLENTOWN      CLOUDY    24  11  57 NW22G29   30.07R WCI   9
QUAKERTOWN*    CLOUDY    27  12  54 N12G20    30.05R
READING        MIX PCPN  26  12  55 NW24      30.10R WCI  11
LANCASTER      MOCLDY    23  10  57 NW25      30.11R WCI   7
COATESVILLE    CLOUDY    27  16  63 NW23G29   30.07R WCI  12
POTTSTOWN      MIX PCPN  27  12  53 NW17G32   30.07R WCI  14
BLUE BELL      CLOUDY    30  27  86 NW6G18    30.03R
DOYLESTOWN     MIX PCPN  25  14  63 NW18G35   30.02R WCI  11
WILLOW GROVE   NOT AVBL
NORTH PHILA    FLURRIES  31  23  72 NW13      30.04R
PHILADELPHIA   MOCLDY    32  16  51 NW25G33   30.05R
$$



USA.gov is the U.S. government's official web portal to all federal, state and local government web resources and services.